Location: Del Amo
(33.8464°N, 118.2104°W)
Time: 08:57:07
(UTC+00:00)

Vanguard 1 Rocket - Pass Details

Date: 16 September 2024
Orbit: 650 x 4218 km, 34.3° (Epoch: 09 October)

Event Time Altitude Azimuth Distance (km) Brightness Sun altitude
Rises 16:08:13 0° 286° (WNW) 7,273 11.5 30.0°
Reaches altitude 10° 16:12:32 10° 285° (WNW) 6,586 11.3 30.9°
Maximum altitude 16:36:38 71° 207° (SSW) 4,353 11.4 35.5°
Drops below altitude 10° 17:00:10 10° 128° (SE) 6,441 12.9 39.8°
Sets 17:04:21 0° 126° (SE) 7,113 12.8 40.6°
